SCP
0 0 0 0 0 0 0 0 0 0 0 0 0 0 0 0 0 0 0 0 0 0 0 0 0 0 0 0 0 0 0 0 0
0 0 0 0 0 0 0 0 0 0 0 0 0 0 -0 0 0 0 0 0 0 0 0 0 0 0 0 0 0 0 0 0 0
0 0 0 0 0 0 0 0 0 0 0 0 0 0 0 0 0 0 0 0 0 0 0 0 0 0 0 0 0 0 0 0 0
0 0 0 0 0 0 0 0 0 0 0 0 0 0 0 0 0 0 0 0 0 0 0 0 0 0 0 0 0 0 0 0 0
0 0 0 0 0 0 0 0 0 -0 0 0 0 0 0 0 0 0 0 0 0 0 0 0 0 0 0 0 0 0 0 0 0
0 0 0 0 0 0 0 0 0 -0 0 0 0 0 0 0 0 0 0 0 0 0 0 0 0 0 0 0 0 0 0 0 0
0 0 0 0 0 0 0 0 0 0 0 0 0 0 0 0 0 0 0 0 0 0 0 0 0 0 0 0 0 0 0 0 0
0 0 0 0 0 0 0 0 0 0 0 0 0 0 0 0 0 0 0 0 0 0 0 0 0 0 0 0 0 0 0 0 0
0 0 0 0 0 0 0 0 0 0 0 0 0 0 0 0 0 0 0 0 0 0 0 0 0 0 0 0 0 0 0 0 0
0 0 0 0 0 0 0 0 0 0 0 0 0 0 0 0 0 0 0 0 0 0 0 0 0 0 0 0 0 0 0 0 0
0 0 0 0 0 0 0 0 0 0 0 0 0 0 0 0 0 0 0 0 0 0 0 0 0 0 0 0 0 0 0 0 0
0 0 0 0 0 0 0 0 0 0 0 0 0 0 0 0 0 0 0 0 0 0 0 0 0 0 0 0 0 0 0 0 0
0 0 0 0 0 0 0 0 0 0 0 0 0 0 0 0 0 0 0 0 0 0 0 0 0 0 0 0 0 0 0 0 0
0 0 0 0 0 0 0 0 0 0 0 0 0 0 0 0 0 0 0 0 0 0 0 0 0 0 0 0 0 0 0 0 0
0 0 0 0 0 0 0 0 0 0 0 0 0 0 0 0 0 0 0 0 0 0 0 0 0 0 0 0 0 0 0 0 0
0 0 0 0 0 0 0 0 0 0 0 0 0 0 0 0 0 0 0 0 0 0 0 0 0 0 0 0 0 0 0 0 0
0 0 0 0 0 0 0 0 0 0 0 0 0 0 0 0 0 0 0 0 0 0 0 0 0 0 0 0 0 0 0 0 0
0 0 0 0 0 0 0 0 0 0 0 0 0 0 0 0 0 0 0 0 0 0 0 0 0 0 0 0 0 0 0 0 0
0 0 0 0 0 0 0 0 0 0 0 0 0 0 0 0 0 0 0 0 0 0 0 0 0 0 0 0 0 0 0 0 0
0 0 0 0 0 0 0 0 0 0 0 0 0 0 0 0 0 0 0 0 0 0 0 0 0 0 0 0 0 0 0 0 0
Wind_Speed_500mb
21 21 22 21 21 21 19 19 18 17 16 14 14 12 10 8 10 12 17 17 27 25 25 26 24 26 25 22 23 25 22 23 23
22 22 21 22 21 20 20 19 19 18 17 17 16 15 13 10 12 11 13 15 15 17 19 25 25 25 26 25 25 24 28 27 25
20 21 22 21 20 20 20 20 19 18 17 17 18 16 14 14 12 11 10 13 8 5 14 23 25 29 32 33 31 28 26 29 28
21 22 22 21 22 22 22 21 21 20 20 19 18 16 15 15 12 10 8 9 8 9 16 21 23 26 28 29 29 29 28 26 27
23 23 22 24 24 23 23 23 23 22 22 22 21 18 17 16 13 11 14 9 9 12 18 20 21 22 24 25 24 26 30 32 32
21 22 23 23 24 24 25 25 25 25 24 23 22 19 13 11 10 10 14 10 11 15 18 20 22 21 21 21 20 21 23 29 34
19 22 22 22 25 23 24 23 24 26 21 19 20 15 13 10 8 16 12 10 10 16 19 22 24 24 21 20 17 16 21 23 27
20 21 22 23 24 22 24 23 23 24 23 21 17 16 12 9 9 21 11 8 6 6 8 8 11 15 20 19 16 14 19 21 23
18 19 21 22 23 23 24 25 26 24 23 22 19 15 11 8 6 22 13 9 9 8 9 11 7 7 12 13 11 13 15 18 17
17 18 21 24 25 25 24 24 23 22 23 23 21 16 10 7 3 17 15 10 13 13 14 16 12 8 9 13 15 18 17 18 15
18 20 22 23 23 25 26 28 27 25 26 23 21 17 13 7 3 14 10 10 13 16 18 18 17 16 15 13 16 16 17 17 15
17 18 21 25 27 29 28 28 25 23 23 20 21 16 10 3 6 9 5 14 21 16 17 20 22 24 23 17 18 22 23 23 17
16 20 23 25 27 27 26 26 25 23 22 15 15 15 11 5 7 7 10 14 13 20 21 26 28 27 26 28 24 25 26 24 24
16 19 23 25 25 26 26 24 25 24 21 15 10 5 2 5 5 7 16 22 23 23 30 31 28 23 23 25 26 27 28 27 28
15 18 20 22 23 24 24 24 25 26 24 14 8 3 10 9 7 12 16 24 26 32 32 30 26 26 21 21 23 26 28 29 31
12 15 19 21 22 24 26 26 23 25 26 16 11 13 12 11 11 13 17 25 30 31 30 24 23 23 21 20 24 27 30 30 30
11 14 16 18 19 21 22 24 24 23 27 24 12 9 8 9 21 18 16 21 30 30 26 24 21 19 20 23 27 31 35 34 30
11 12 13 15 18 19 21 21 22 21 22 22 14 10 8 27 15 18 16 22 26 24 31 25 22 20 21 23 26 29 31 35 34
13 14 15 15 15 17 17 17 17 18 18 15 15 9 12 10 16 14 21 25 28 27 28 22 26 24 23 23 31 32 32 29 31
16 16 17 16 16 16 16 17 17 17 17 17 17 14 17 12 13 26 26 30 24 31 32 21 26 24 26 26 31 31 29 33 32
Wind_Direction_500mb
24 24 25 23 22 22 20 17 15 11 8 2 358 353 349 341 328 311 290 286 261 275 276 279 286 284 282 281 281 273 273 266 262
30 32 31 31 27 24 21 21 21 18 15 12 9 8 9 14 357 358 353 298 292 281 276 271 267 274 279 282 281 286 272 270 270
35 36 34 31 27 25 22 21 21 20 17 13 12 12 16 35 352 359 358 338 8 0 275 280 285 281 277 275 279 281 279 268 268
35 35 34 30 29 25 24 23 21 20 18 16 15 15 21 47 343 22 311 330 312 299 293 299 297 294 291 286 277 273 270 270 269
36 35 32 30 26 23 22 20 18 16 15 15 12 13 32 21 0 360 321 321 327 314 303 310 307 304 300 298 289 277 269 266 264
30 30 25 22 18 15 14 12 8 4 6 9 4 8 7 359 6 306 327 329 347 332 330 324 322 313 310 305 301 293 283 274 270
27 25 20 18 13 14 11 14 12 12 7 356 3 356 351 347 350 297 320 326 346 340 354 6 2 355 337 323 322 321 306 297 282
21 14 10 8 4 4 0 1 358 357 355 354 353 345 352 343 348 299 322 346 8 5 352 350 352 7 0 2 355 329 329 335 330
14 8 9 7 4 2 358 359 356 355 349 344 342 338 334 337 345 301 321 331 317 331 298 298 297 301 3 13 359 336 329 315 331
16 12 10 9 7 4 1 358 357 353 350 347 341 334 323 314 1 287 317 333 325 342 357 357 348 310 316 329 322 315 320 316 315
17 16 11 7 6 4 3 0 358 355 350 349 345 339 326 306 93 285 334 318 328 335 339 339 338 340 337 325 317 311 302 304 292
17 14 10 6 8 9 7 4 4 356 353 357 349 351 344 52 190 221 262 337 343 336 339 338 337 331 325 326 310 298 303 305 302
15 15 13 12 11 10 10 6 6 359 357 8 1 17 41 192 248 278 314 324 329 333 332 330 325 323 319 316 314 313 319 317 314
16 16 14 12 13 12 12 12 8 5 359 7 359 329 218 208 304 306 311 318 324 325 325 326 324 320 315 312 314 315 316 317 316
12 13 12 13 14 13 14 14 14 6 360 0 333 349 334 333 314 294 303 314 321 322 325 325 316 316 315 312 313 314 316 315 315
4 6 8 9 13 16 14 15 15 13 10 19 331 315 327 327 324 304 301 314 326 327 327 326 321 312 318 315 312 315 316 317 316
352 360 2 7 11 12 12 15 20 13 17 15 11 336 294 337 303 314 311 328 335 332 334 328 327 321 320 322 321 321 320 319 315
332 341 347 354 359 1 3 7 11 14 10 19 29 346 335 329 324 326 318 319 332 328 332 329 331 323 319 320 321 327 326 324 320
310 322 330 336 341 345 347 352 358 3 359 13 3 0 326 337 327 336 325 338 322 322 328 318 322 319 318 325 331 332 328 328 328
301 308 315 318 318 320 325 334 340 342 344 342 343 341 329 314 302 306 307 310 307 311 322 302 300 305 315 317 329 326 327 325 326
Wind_Speed_850mb
21 21 22 21 21 21 19 19 18 17 16 14 14 12 10 8 10 12 17 17 27 25 25 26 24 26 25 22 23 25 22 23 23
22 22 21 22 21 20 20 19 19 18 17 17 16 15 13 10 12 11 13 15 15 17 19 25 25 25 26 25 25 24 28 27 25
20 21 22 21 20 20 20 20 19 18 17 17 18 16 14 14 12 11 10 13 8 5 14 23 25 29 32 33 31 28 26 29 28
21 22 22 21 22 22 22 21 21 20 20 19 18 16 15 15 12 10 8 9 8 9 16 21 23 26 28 29 29 29 28 26 27
23 23 22 24 24 23 23 23 23 22 22 22 21 18 17 16 13 11 14 9 9 12 18 20 21 22 24 25 24 26 30 32 32
21 22 23 23 24 24 25 25 25 25 24 23 22 19 13 11 10 10 14 10 11 15 18 20 22 21 21 21 20 21 23 29 34
19 22 22 22 25 23 24 23 24 26 21 19 20 15 13 10 8 16 12 10 10 16 19 22 24 24 21 20 17 16 21 23 27
20 21 22 23 24 22 24 23 23 24 23 21 17 16 12 9 9 21 11 8 6 6 8 8 11 15 20 19 16 14 19 21 23
18 19 21 22 23 23 24 25 26 24 23 22 19 15 11 8 6 22 13 9 9 8 9 11 7 7 12 13 11 13 15 18 17
17 18 21 24 25 25 24 24 23 22 23 23 21 16 10 7 3 17 15 10 13 13 14 16 12 8 9 13 15 18 17 18 15
18 20 22 23 23 25 26 28 27 25 26 23 21 17 13 7 3 14 10 10 13 16 18 18 17 16 15 13 16 16 17 17 15
17 18 21 25 27 29 28 28 25 23 23 20 21 16 10 3 6 9 5 14 21 16 17 20 22 24 23 17 18 22 23 23 17
16 20 23 25 27 27 26 26 25 23 22 15 15 15 11 5 7 7 10 14 13 20 21 26 28 27 26 28 24 25 26 24 24
16 19 23 25 25 26 26 24 25 24 21 15 10 5 2 5 5 7 16 22 23 23 30 31 28 23 23 25 26 27 28 27 28
15 18 20 22 23 24 24 24 25 26 24 14 8 3 10 9 7 12 16 24 26 32 32 30 26 26 21 21 23 26 28 29 31
12 15 19 21 22 24 26 26 23 25 26 16 11 13 12 11 11 13 17 25 30 31 30 24 23 23 21 20 24 27 30 30 30
11 14 16 18 19 21 22 24 24 23 27 24 12 9 8 9 21 18 16 21 30 30 26 24 21 19 20 23 27 31 35 34 30
11 12 13 15 18 19 21 21 22 21 22 22 14 10 8 27 15 18 16 22 26 24 31 25 22 20 21 23 26 29 31 35 34
13 14 15 15 15 17 17 17 17 18 18 15 15 9 12 10 16 14 21 25 28 27 28 22 26 24 23 23 31 32 32 29 31
16 16 17 16 16 16 16 17 17 17 17 17 17 14 17 12 13 26 26 30 24 31 32 21 26 24 26 26 31 31 29 33 32
Wind_Direction_850mb
24 24 25 23 22 22 20 17 15 11 8 2 358 353 349 341 328 311 290 286 261 275 276 279 286 284 282 281 281 273 273 266 262
30 32 31 31 27 24 21 21 21 18 15 12 9 8 9 14 357 358 353 298 292 281 276 271 267 274 279 282 281 286 272 270 270
35 36 34 31 27 25 22 21 21 20 17 13 12 12 16 35 352 359 358 338 8 0 275 280 285 281 277 275 279 281 279 268 268
35 35 34 30 29 25 24 23 21 20 18 16 15 15 21 47 343 22 311 330 312 299 293 299 297 294 291 286 277 273 270 270 269
36 35 32 30 26 23 22 20 18 16 15 15 12 13 32 21 0 360 321 321 327 314 303 310 307 304 300 298 289 277 269 266 264
30 30 25 22 18 15 14 12 8 4 6 9 4 8 7 359 6 306 327 329 347 332 330 324 322 313 310 305 301 293 283 274 270
27 25 20 18 13 14 11 14 12 12 7 356 3 356 351 347 350 297 320 326 346 340 354 6 2 355 337 323 322 321 306 297 282
21 14 10 8 4 4 0 1 358 357 355 354 353 345 352 343 348 299 322 346 8 5 352 350 352 7 0 2 355 329 329 335 330
14 8 9 7 4 2 358 359 356 355 349 344 342 338 334 337 345 301 321 331 317 331 298 298 297 301 3 13 359 336 329 315 331
16 12 10 9 7 4 1 358 357 353 350 347 341 334 323 314 1 287 317 333 325 342 357 357 348 310 316 329 322 315 320 316 315
17 16 11 7 6 4 3 0 358 355 350 349 345 339 326 306 93 285 334 318 328 335 339 339 338 340 337 325 317 311 302 304 292
17 14 10 6 8 9 7 4 4 356 353 357 349 351 344 52 190 221 262 337 343 336 339 338 337 331 325 326 310 298 303 305 302
15 15 13 12 11 10 10 6 6 359 357 8 1 17 41 192 248 278 314 324 329 333 332 330 325 323 319 316 314 313 319 317 314
16 16 14 12 13 12 12 12 8 5 359 7 359 329 218 208 304 306 311 318 324 325 325 326 324 320 315 312 314 315 316 317 316
12 13 12 13 14 13 14 14 14 6 360 0 333 349 334 333 314 294 303 314 321 322 325 325 316 316 315 312 313 314 316 315 315
4 6 8 9 13 16 14 15 15 13 10 19 331 315 327 327 324 304 301 314 326 327 327 326 321 312 318 315 312 315 316 317 316
352 360 2 7 11 12 12 15 20 13 17 15 11 336 294 337 303 314 311 328 335 332 334 328 327 321 320 322 321 321 320 319 315
332 341 347 354 359 1 3 7 11 14 10 19 29 346 335 329 324 326 318 319 332 328 332 329 331 323 319 320 321 327 326 324 320
310 322 330 336 341 345 347 352 358 3 359 13 3 0 326 337 327 336 325 338 322 322 328 318 322 319 318 325 331 332 328 328 328
301 308 315 318 318 320 325 334 340 342 344 342 343 341 329 314 302 306 307 310 307 311 322 302 300 305 315 317 329 326 327 325 326